GW5288 Weather Reports


time (UTC)temp
C
wind
direction
speed
KPH
gust
KPH
rain 1hr
cm
rain 24hr
cm
rain mn
cm
humidity
%
barometer
mb
20260503180733 23 82 0.0 1.6 0.00 0.00 0.53 97 1015.0
20260503180234 23 18 3.2 3.2 0.00 0.00 0.53 97 1014.0
20260503175733 23 140 0.0 3.2 0.00 0.00 0.53 96 1014.0
20260503175235 23 187 3.2 4.8 0.00 0.00 0.53 96 1015.0
20260503174733 23 59 0.0 4.8 0.00 0.00 0.53 96 1015.0
20260503174233 23 185 4.8 4.8 0.48 0.00 0.53 95 1015.0
20260503173733 23 195 6.4 9.7 1.19 0.00 0.53 95 1015.0
20260503173233 23 209 9.7 9.7 1.45 0.00 0.43 94 1015.0
20260503172733 24 209 9.7 9.7 0.66 0.00 0.30 94 1015.0
20260503172233 25 209 9.7 14.5 1.14 0.00 0.20 94 1014.0
20260503171733 25 201 11.3 20.9 0.36 0.00 0.08 93 1015.0
20260503171233 25 198 6.4 9.7 0.00 0.00 0.00 95 1015.0
20260503170734 25 235 1.6 1.6 0.00 0.00 0.00 95 1015.0
20260503170233 25 266 1.6 1.6 0.00 0.00 0.00 95 1015.0
20260503150733 25 278 0.0 3.2 0.00 0.00 0.00 94 1015.0
20260503150233 25 254 0.0 3.2 0.00 0.00 0.00 94 1015.0
20260503140234 25 6 3.2 3.2 0.00 0.00 0.00 97 1015.0
20260503131233 24 127 4.8 4.8 0.00 0.00 0.00 97 1015.0
20260503130733 24 108 0.0 1.6 0.00 0.00 0.00 97 1015.0
20260503130234 24 181 0.0 3.2 0.00 0.00 0.00 98 1015.0
20260503110733 23 228 0.0 1.6 0.00 0.00 0.00 98 1013.0
20260503110234 23 47 1.6 1.6 0.00 0.00 0.00 98 1013.0
20260503100233 23 113 0.0 1.6 0.00 0.00 0.00 97 1012.0
20260503090233 23 151 0.0 1.6 0.00 0.00 0.00 97 1011.0
20260503081233 23 133 4.8 4.8 0.00 0.00 0.00 96 1011.0
20260503080733 23 183 3.2 4.8 0.00 0.00 0.00 96 1011.0
20260503080234 23 135 0.0 1.6 0.00 0.00 0.00 96 1011.0
20260503072733 23 31 1.6 3.2 0.00 0.00 0.00 96 1011.0
20260503072233 23 124 0.0 1.6 0.00 0.00 0.00 96 1011.0
20260503071733 23 135 0.0 0.0 0.00 0.00 0.00 96 1011.0
20260503071233 24 246 0.0 1.6 0.00 0.00 0.00 96 1011.0
20260503070733 24 51 0.0 3.2 0.00 0.00 0.00 96 1011.0
20260503070233 24 25 0.0 3.2 0.00 0.00 0.00 96 1011.0
20260503060233 24 288 0.0 0.0 0.00 0.00 0.00 96 1012.0
20260503054733 23 245 0.0 0.0 0.00 0.00 0.00 96 1012.0
20260503054233 23 260 0.0 1.6 0.00 0.00 0.00 96 1013.0
20260503053733 23 240 0.0 0.0 0.00 0.00 0.00 96 1013.0
20260503053233 23 312 0.0 0.0 0.00 0.00 0.00 96 1013.0
20260503052733 23 139 0.0 1.6 0.00 0.00 0.00 95 1013.0
20260503052234 23 147 0.0 3.2 0.00 0.00 0.00 95 1013.0
20260503051733 24 187 0.0 3.2 0.00 0.00 0.00 95 1013.0
20260503051233 24 128 0.0 1.6 0.00 0.00 0.00 95 1013.0
20260503050733 24 119 0.0 1.6 0.00 0.00 0.00 95 1013.0
20260503050233 24 55 0.0 0.0 0.00 0.00 0.00 95 1013.0
20260503045734 24 82 0.0 1.6 0.00 0.00 0.33 95 1013.0
20260503045233 24 99 0.0 3.2 0.00 0.00 0.33 95 1013.0
20260503044733 24 44 0.0 1.6 0.00 0.00 0.33 95 1013.0
20260503044233 24 16 1.6 3.2 0.00 0.00 0.33 95 1013.0
20260503043733 24 53 0.0 3.2 0.00 0.00 0.33 95 1013.0
20260503043233 24 44 0.0 0.0 0.00 0.00 0.33 95 1013.0
20260503042733 24 133 0.0 1.6 0.00 0.00 0.33 95 1013.0
20260503042234 24 109 0.0 1.6 0.00 0.00 0.33 95 1013.0
20260503041733 24 127 1.6 3.2 0.00 0.00 0.33 95 1013.0
20260503041233 24 260 0.0 0.0 0.00 0.00 0.33 95 1014.0
20260503040733 24 169 0.0 0.0 0.00 0.00 0.33 95 1013.0
20260503040233 25 327 3.2 3.2 0.00 0.00 0.33 95 1013.0
20260503035733 25 301 3.2 3.2 0.00 0.00 0.33 95 1013.0
20260503035235 25 4 3.2 3.2 0.00 0.00 0.33 95 1014.0
20260503034733 25 345 0.0 1.6 0.00 0.00 0.33 95 1014.0
20260503034233 25 277 0.0 0.0 0.00 0.00 0.33 95 1014.0
20260503033733 25 303 0.0 1.6 0.00 0.00 0.33 95 1014.0
20260503033233 25 238 0.0 1.6 0.00 0.00 0.33 95 1014.0
20260503032733 25 49 0.0 3.2 0.00 0.00 0.33 95 1014.0
20260503032233 25 350 3.2 3.2 0.00 0.00 0.33 95 1014.0
20260503031734 25 36 0.0 4.8 0.00 0.00 0.33 95 1014.0
20260503031233 25 35 3.2 3.2 0.00 0.00 0.33 95 1014.0
20260503030733 25 40 1.6 3.2 0.00 0.00 0.33 95 1014.0
20260503030234 25 220 0.0 0.0 0.00 0.00 0.33 95 1014.0
20260503025733 25 40 0.0 1.6 0.00 0.00 0.33 95 1014.0
20260503025233 25 162 0.0 0.0 0.00 0.00 0.33 95 1013.0
20260503024733 24 157 0.0 1.6 0.00 0.00 0.33 95 1013.0
20260503024233 24 154 0.0 1.6 0.00 0.00 0.33 94 1014.0
20260503023733 24 157 0.0 0.0 0.00 0.00 0.33 94 1014.0
20260503023233 24 190 3.2 3.2 0.00 0.00 0.33 94 1013.0
20260503022733 24 153 0.0 1.6 0.00 0.00 0.33 94 1013.0
20260503022233 25 54 0.0 3.2 0.00 0.00 0.33 94 1014.0
20260503021733 25 135 0.0 3.2 0.00 0.00 0.33 94 1013.0
20260503021233 25 118 3.2 3.2 0.00 0.00 0.33 94 1013.0
20260503020733 25 131 1.6 3.2 0.00 0.00 0.33 93 1013.0
20260503020233 25 134 3.2 3.2 0.00 0.00 0.33 93 1013.0
20260503015734 25 159 0.0 1.6 0.00 0.00 0.33 93 1013.0
20260503015234 25 58 0.0 1.6 0.00 0.00 0.33 93 1013.0
20260503014733 25 135 0.0 1.6 0.00 0.00 0.33 93 1013.0
20260503014233 25 120 0.0 1.6 0.00 0.00 0.33 93 1013.0
20260503013733 25 127 1.6 3.2 0.00 0.00 0.33 93 1013.0
20260503013233 25 104 3.2 4.8 0.00 0.00 0.33 93 1013.0
20260503012733 25 123 3.2 4.8 0.00 0.00 0.33 93 1013.0
20260503012233 25 109 3.2 4.8 0.00 0.00 0.33 93 1012.0
20260503011734 25 101 3.2 4.8 0.00 0.00 0.33 93 1012.0
20260503011235 25 121 3.2 4.8 0.00 0.00 0.33 92 1012.0
20260503010733 25 145 0.0 3.2 0.00 0.00 0.33 92 1012.0
20260503010234 25 155 1.6 1.6 0.00 0.00 0.33 92 1012.0
20260503005733 25 129 0.0 1.6 0.00 0.00 0.33 92 1012.0
20260503005234 25 169 0.0 1.6 0.00 0.00 0.33 91 1012.0
20260503004733 25 135 0.0 3.2 0.00 0.00 0.33 91 1011.0
20260503004233 25 114 0.0 1.6 0.00 0.00 0.33 91 1011.0
20260503003733 25 128 0.0 1.6 0.00 0.00 0.33 91 1011.0
20260503003234 25 203 0.0 3.2 0.00 0.00 0.33 90 1011.0
20260503002733 25 190 0.0 1.6 0.00 0.00 0.33 90 1011.0
20260503002233 25 119 0.0 0.0 0.00 0.00 0.33 90 1011.0
20260503001733 25 215 0.0 1.6 0.00 0.00 0.33 90 1011.0
20260503001234 25 156 1.6 1.6 0.00 0.00 0.33 90 1011.0
20260503000733 26 269 0.0 1.6 0.00 0.00 0.33 90 1011.0
20260503000234 26 246 0.0 0.0 0.00 0.00 0.33 90 1010.0
20260502235734 26 287 0.0 1.6 0.00 0.00 0.33 90 1010.0
20260502235233 26 309 0.0 3.2 0.00 0.00 0.33 90 1010.0
20260502234734 25 277 0.0 1.6 0.00 0.00 0.33 90 1010.0
20260502234233 25 253 0.0 0.0 0.00 0.00 0.33 90 1010.0
20260502233733 25 244 0.0 1.6 0.00 0.00 0.33 89 1010.0
20260502233233 25 149 0.0 0.0 0.00 0.00 0.33 89 1010.0
20260502232734 25 216 0.0 1.6 0.00 0.00 0.33 89 1010.0
20260502232233 25 176 1.6 3.2 0.00 0.00 0.33 88 1010.0
20260502231734 26 202 0.0 1.6 0.00 0.00 0.33 88 1010.0
20260502231234 26 201 0.0 3.2 0.00 0.00 0.33 87 1010.0
20260502230733 26 175 0.0 3.2 0.00 0.00 0.33 87 1010.0
20260502230233 26 251 1.6 1.6 0.00 0.00 0.33 86 1009.0
20260502225733 26 251 1.6 1.6 0.00 0.00 0.33 85 1009.0
20260502225233 27 251 1.6 1.6 0.00 0.00 0.33 85 1009.0
20260502224733 27 251 1.6 1.6 0.00 0.00 0.33 84 1009.0
20260502224233 27 251 1.6 1.6 0.00 0.00 0.33 84 1009.0
20260502223733 27 251 1.6 1.6 0.00 0.00 0.33 83 1009.0
20260502223233 27 251 1.6 1.6 0.00 0.00 0.33 83 1009.0
20260502222733 27 291 1.6 1.6 0.00 0.00 0.33 82 1009.0
20260502222233 27 291 1.6 1.6 0.00 0.00 0.33 82 1009.0
20260502221733 27 291 1.6 4.8 0.00 0.00 0.33 82 1009.0
20260502221234 27 245 1.6 1.6 0.00 0.00 0.33 82 1009.0
20260502220733 27 202 8.0 8.0 0.00 0.00 0.33 82 1009.0
20260502220233 27 202 8.0 8.0 0.00 0.00 0.33 83 1009.0
20260502215733 27 202 8.0 8.0 0.00 0.00 0.33 83 1009.0
20260502215233 27 211 3.2 3.2 0.00 0.00 0.33 83 1009.0
20260502214733 27 211 3.2 3.2 0.00 0.00 0.33 84 1009.0
20260502214235 27 211 3.2 3.2 0.00 0.00 0.33 83 1009.0
20260502213733 27 213 6.4 8.0 0.00 0.00 0.33 83 1009.0
20260502213233 27 190 8.0 8.0 0.00 0.00 0.33 82 1009.0
20260502212733 27 190 8.0 8.0 0.00 0.00 0.33 82 1009.0
20260502212233 27 319 3.2 3.2 0.00 0.00 0.33 81 1009.0
20260502211733 27 319 3.2 3.2 0.00 0.00 0.33 81 1009.0
20260502211233 28 319 3.2 3.2 0.00 0.00 0.33 81 1009.0
20260502210733 28 319 3.2 3.2 0.00 0.00 0.33 81 1010.0
20260502210233 28 319 3.2 3.2 0.00 0.00 0.33 81 1009.0
20260502205733 28 319 3.2 3.2 0.00 0.00 0.33 81 1009.0
20260502205234 28 319 3.2 3.2 0.00 0.00 0.33 81 1009.0
20260502204733 28 319 3.2 3.2 0.00 0.00 0.33 81 1009.0
20260502204233 28 319 3.2 3.2 0.00 0.00 0.33 81 1010.0
20260502203734 28 319 3.2 3.2 0.00 0.00 0.33 81 1010.0
20260502203233 28 319 3.2 3.2 0.00 0.00 0.33 82 1010.0
20260502202733 28 319 3.2 3.2 0.00 0.00 0.33 82 1010.0
20260502202233 28 319 3.2 3.2 0.00 0.00 0.33 82 1010.0
20260502201733 28 319 3.2 3.2 0.00 0.00 0.33 82 1010.0
20260502201233 28 319 3.2 3.2 0.00 0.00 0.33 83 1010.0
20260502200734 28 319 3.2 3.2 0.00 0.00 0.33 83 1010.0
20260502200234 28 319 3.2 3.2 0.00 0.00 0.33 84 1010.0
20260502195734 27 319 3.2 3.2 0.00 0.00 0.33 84 1010.0
20260502195234 27 319 3.2 3.2 0.00 0.00 0.33 84 1010.0
20260502194733 27 319 3.2 3.2 0.00 0.00 0.33 84 1010.0
20260502194233 27 319 3.2 3.2 0.00 0.00 0.33 84 1010.0
20260502193733 27 319 3.2 3.2 0.00 0.00 0.33 84 1010.0
20260502193233 27 319 3.2 3.2 0.00 0.00 0.33 85 1010.0
20260502192733 27 319 3.2 3.2 0.00 0.00 0.33 85 1010.0
20260502192233 27 319 3.2 3.2 0.00 0.00 0.33 84 1010.0
20260502191733 27 319 3.2 3.2 0.00 0.00 0.33 84 1010.0
20260502191233 27 319 3.2 3.2 0.00 0.00 0.33 84 1010.0
20260502190733 27 319 3.2 3.2 0.00 0.00 0.33 84 1011.0
20260502190233 28 319 3.2 3.2 0.00 0.00 0.33 84 1011.0
20260502185733 28 319 3.2 3.2 0.00 0.00 0.33 83 1011.0
20260502185233 28 319 3.2 3.2 0.00 0.00 0.33 85 1011.0
20260502184733 28 319 3.2 3.2 0.00 0.00 0.33 85 1012.0
20260502184233 28 319 3.2 3.2 0.00 0.00 0.33 86 1011.0
20260502183733 27 319 3.2 3.2 0.00 0.00 0.33 86 1012.0
20260502183233 27 319 3.2 3.2 0.00 0.00 0.33 86 1012.0
20260502182734 27 319 3.2 3.2 0.00 0.00 0.33 87 1012.0
20260502182233 27 319 3.2 3.2 0.00 0.00 0.33 87 1012.0
20260502181733 27 319 3.2 3.2 0.00 0.00 0.33 87 1012.0
20260502181233 27 319 3.2 3.2 0.00 0.00 0.33 88 1013.0